Погода Нижний Чир

Погода Нижний Чир : погода сейчас, прогноз погоды и архив. Всё, что Вы хотите узнать о погоде Нижний Чир!

Хотите узнать прогноз погоды Нижний Чир? Тогда Вам сюда: Погода Нижний Чир

Поиск расширенной информации на нашем сайте:

Другие новости

Новости СМИ2

Главная страница сайта

Новости сайта

03.07.2017

Напоминаем, что на нашем специализированном сайте Метеоцентр.Азия вы можете получить высокодетализированные автоматические прогнозы погоды по пунктам России, СНГ и мира в авиационном формате (включающие направление и скорость ветра, видимость, явления погоды, количество и форму облачности, нижнюю и верхнюю границу облачности).


Погода Нижний Чир - сегодня

Время (UTC), дата Ветер
(°,м/с) 
Видим.   Явления Облачность Т
(°С)
Тd
(°С)
f(%) Тe
(°С)
Pmin
(гПа)
dP
(гПа)
Po
(мм)
O2
(г/м3)
Тmin Tmax R s Состояние
почвы
21 20.02.18 290 (З) 20000 м    ясно 
-7.3 -10.9 75 -11  1025.1  0.4  762  316           
00 21.02.18 290 (З) 20000 м    ясно 
-8.2 -11.1 80 -11  1025.7  0.6  762  318           
03 21.02.18 330 (СЗ) 20000 м    ясно 
-10 -12.3 83 -10  1026.2  0.5  762  320  -10.1      равномерный
сухой снег
100% 
06 21.02.18 320 (СЗ) 10 км    ясно 
-7.1 -10.3 78 -9  1026.9  0.8  763  317  -11.1         
09 21.02.18 080 (В) 20000 м    ясно 
-4.4 -9.7 66 -4  1026.6  -0.2  763  313           
12 21.02.18 070 (В) 20000 м    3/3 600 м 
[Cu hum]
-3.3 -9.5 62 -3  1025.9  -0.7  762  312           
15 21.02.18 340 (С) 20000 м    ясно 
-6.3 -9.9 76 -6  1026.2  0.2  762  315    -3.3       
18 21.02.18 330 (СЗ) 20000 м    ясно 
-7.9 -11 78 -9  1026.5  0.3  763  318           
21 21.02.18 310 (СЗ) 20000 м    ясно 
-9.4 -11.8 83 -11  1026.3  -0.3  762  319           
00 22.02.18 310 (СЗ) 20000 м    10/10 300 м 
[St]
-7.8 -10.8 79 -9  1025.8  -0.5  762  317           
03 22.02.18 350 (С) 10 км    10/10 300 м 
[St]
-7.4 -9.5 85 -9  1025.4  -0.3  762  317  -9.4      равномерный
сухой снег
100% 
06 22.02.18 050 (СВ) 10 км    10/10 300 м 
[St]
-5.7 -7.4 88 -9  1025.1  -0.3  762  314           
09 22.02.18 040 (СВ) 4000 м  слаб. снег  10/10 300 м 
[Frnb|Ns]
-4.3 -6.2 87 -7  1025.1  762  313           
12 22.02.18 040 (СВ) 10 км  слаб. снег  10/10 300 м 
[Frnb|Ns]
-3.3 -5.9 82 -6  1024.5  -0.6  761  311           
15 22.02.18 040 (СВ) 10 км  {снег}  10/10 300 м 
[St]
-4.1 -6.4 84 -8  1024.8  0.3  761  312    -3.3  0.4     
18 22.02.18 050 (СВ) 4000 м  слаб. снег  10/10 300 м 
[Frnb|Ns]
-5.1 -7.1 86 -9  1025.4  0.6  762  314           
21 22.02.18 050 (СВ) 10 км  слаб. снег  10/10 300 м 
[Frnb|Ns]
-6.4 -8.8 83 -11  1025.4  0.1  762  315           
00 23.02.18 030 (СВ) 10 км  слаб. снег  10/10 300 м 
[Frnb|Ns]
-7.3 -9.2 86 -12  1025  -0.4  762  316           
03 23.02.18 040 (СВ) 7-10{10}  4000 м  слаб. снег  10/10 300 м 
[Frnb|Ns]
-8.3 -9.8 89 -14  1024.9  -0.2  761  317  -8.3    0.6  равномерный
сухой снег
100% 
06 23.02.18 050 (СВ) 8-11  4000 м  слаб. снег  10/10 300 м 
[Frnb|Ns]
-8.6 -10.3 87 -15  1025  0.1  761  318  -8.6         
09 23.02.18 050 (СВ) 7{11}  4000 м  слаб. снег  10/10 300 м 
[Frnb|Ns]
-7.7 -9.5 87 -13  1024.5  -0.4  761  317           
12 23.02.18 050 (СВ) 9-11{11}  4000 м  слаб. снег  10/10 300 м 
[Frnb|Ns]
-7.2 -9 87 -13  1023.6  -0.9  761  316           
15 23.02.18 040 (СВ) 10  4000 м  слаб. снег  10/10 300 м 
[Frnb|Ns]
-8.6 -10.1 89 -16  1023.6  761  317    -7.1     
18 23.02.18 040 (СВ) 9-12{13}  4000 м  слаб. снег  10/10 300 м 
[Frnb|Ns]
-10 -11.5 89 -17  1023.6  760  319           
21 23.02.18 040 (СВ) 8-10{12}  1000 м  слаб. снег  10/10 300 м 
[Frnb|Ns]
-10.5 -12.1 88 -17  1022.6  -1  760  320           
Время (UTC), дата Ветер
(°,м/с) 
Видим.   Явления Облачность Т
(°С)
Тd
(°С)
f(%) Тe
(°С)
Pmin
(гПа)
dP
(гПа)
Po
(мм)
O2
(г/м3)
Тmin Tmax R s Состояние
почвы

Для получения пояснительной информации подведите курсор к названию столбца.

ПОГОДА Нижний Чир - архив

Всё, что Вы хотите узнать о погоде Нижний Чир - удобно и подробно!

Выберите нужную дату (начиная с 1 января 2015* года) и нажмите кнопку "Найти".
Будут отображены архивные сводки погоды по пункту Нижний Чир, начиная с указанной даты.


Отображать данные в формате CSV (для использования в таблицах Excel)


Внимание! Наш архив погоды предназначен исключительно для личного некоммерческого использования в познавательных целях. Если Вам необходимы официальные справки о состоянии погоды (для производственных, юридических, коммерческих и т.п. целей), обращайтесь в органы Росгидромета.

*Примечание: данная дата относится к архиву по метеостанциям СССР (Россия, СНГ, Балтия).
Архив по метеостанциям Зарубежной Европы и Азии (кроме Китая) хранится 10 дней, по другим регионам земного шара (Китай, Африка, Америка, Австралия, Океания) - 1 день.

Нижний Чир - район местоположения метеостанции


Название, широта, долгота, высота метеостанции:
Нижний Чир 48.3°ш. 43.1°д. 68 м над ур. моря [Российская Федерация]

Дополнительная информация

В oтличие oт бoльшинства пoгoдных сайтoв мы публикуем пoдрoбную метеoинфoрмацию в детальнoм прoфессиoнальнoм фoрмате.

Характеристики температуры и влажнoсти вoздуха измеряются на высoте 2 м в тени вдали oт зданий и деревьев.
Скoрoсть ветра измеряется на высoте 10 м (на урoвне рoста челoвека скoрoсть ветра ниже в 1.5-2 раза). Если метеoстанция нахoдится в гoрoде или в лесу, тo скoрoсть ветра занижена на 2-4 м/с пo сравнению с oткрытым местoм. Скoрoсть ветра над акватoриями крупных рек и oзёр, а также на вершинах хoлмoв на 2-5 м/с выше, чем в oбычных услoвиях.
Атмoсфернoе давление в разных тoчках местнoсти мoжет значительнo oтличаться oт давления на метеoстанции, в зависимoсти oт услoвий рельефа (при пoдъёме на 10 м давление пoнижается примернo на 1 мм рт.ст.).